[[{"header":{"parameterUnit":"m.s-1","parameterCategory":2,"la1":30.2992,"la2":30.254,"lo1":-89.0895,"lo2":-89.0443,"dy":0.0025,"dx":0.0025,"nx":19,"ny":19,"refTime":"2026-04-21T09:00:00:Z","depth":"0","parameterNumber":2,"parameterNumberName":"U-component_of_CURRENTS"},"data":[0,0,0,-0.1125,-0.1125,-0.1117,-0.1117,-0.1092,-0.1092,0,0,0,0,0,0,0,0,0,0,0,-0.1124,-0.1124,-0.1125,-0.1125,-0.1117,-0.1117,-0.1092,-0.1092,0,0,0,0,0,0,0,0,0,0,0,-0.1124,-0.1124,-0.1124,-0.1125,-0.1117,-0.1117,-0.1092,-0.11,0,0,0,0,0,0,0,0,0,0,-0.1109,-0.1111,-0.1124,-0.1124,-0.1125,-0.1117,-0.1117,-0.1101,-0.11,-0.1093,0,-0.1094,0,-0.1096,-0.109,-0.109,0,0,0,-0.1119,-0.1112,-0.1113,-0.1124,-0.1125,-0.1117,-0.1119,-0.11,-0.1099,-0.1092,-0.1093,-0.1093,-0.1096,-0.109,-0.109,-0.1086,-0.1086,0,0,-0.1119,-0.1119,-0.1114,-0.1113,-0.1125,-0.1119,-0.1119,-0.11,-0.1097,-0.1093,-0.1092,-0.1095,-0.109,-0.109,-0.1086,-0.1086,0,0,0,-0.1125,-0.1119,-0.112,-0.1113,-0.1115,-0.1119,-0.1119,-0.1098,-0.1099,-0.1092,-0.1095,-0.109,-0.109,-0.1086,-0.1086,-0.1116,0,0,0,-0.1124,-0.1123,-0.1121,-0.112,-0.1116,-0.1109,-0.1117,-0.1101,-0.1099,-0.1095,-0.109,-0.109,-0.1085,-0.1086,-0.1115,-0.1113,0,0,0,-0.1124,-0.1122,-0.1123,-0.112,-0.112,-0.1109,-0.1109,-0.11,-0.1101,-0.109,-0.109,-0.1085,-0.1086,-0.1114,-0.1112,-0.1061,0,0,0,-0.1122,-0.1145,-0.1123,-0.1151,-0.112,-0.114,-0.1109,-0.1119,-0.1115,-0.109,-0.1085,-0.1086,-0.1113,-0.1111,-0.1061,-0.0937,-0.0926,0,0,-0.1157,-0.1149,-0.1169,-0.1149,-0.1181,-0.114,-0.1158,-0.1138,-0.1113,-0.1089,-0.1089,-0.1115,-0.1112,-0.1061,-0.0953,-0.0941,0,0,0,-0.1185,-0.1193,-0.1201,-0.1209,-0.121,-0.1191,-0.1171,-0.1151,-0.1127,-0.1112,-0.1112,-0.1109,-0.1075,-0.1001,-0.0992,-0.0895,-0.1087,-0.1087,-0.1087,-0.1215,-0.1223,-0.1245,-0.1247,-0.1251,-0.1228,-0.1207,-0.117,-0.1155,-0.1145,-0.1132,-0.1111,-0.1035,-0.1026,-0.093,-0.1138,-0.1138,-0.1138,-0.1138,-0.1245,-0.124,-0.1254,-0.1276,-0.126,-0.1261,-0.1225,-0.1205,-0.1148,-0.1152,-0.1118,-0.1036,-0.1017,-0.0918,-0.114,-0.1139,-0.1139,-0.1139,-0.1139,-0.1228,-0.1223,-0.1245,-0.1256,-0.1261,-0.1254,-0.1216,-0.1198,-0.116,-0.1139,-0.1007,-0.1004,-0.0912,-0.1108,-0.1108,-0.1107,-0.1107,-0.1107,-0.1107,-0.1176,-0.1202,-0.1197,-0.1222,-0.1221,-0.1219,-0.1191,-0.1145,-0.1051,-0.1009,-0.1007,-0.0883,-0.1101,-0.1097,-0.1104,-0.1104,-0.1105,-0.1105,-0.1105,-0.1114,-0.1128,-0.1116,-0.1118,-0.1134,-0.1081,-0.1102,-0.0969,-0.0915,-0.0836,-0.0718,-0.092,-0.0882,-0.0888,-0.0878,-0.0828,-0.0828,-0.0828,-0.0828,-0.105,-0.1065,-0.1023,-0.1017,-0.1029,-0.1012,-0.0831,-0.0719,-0.0597,-0.0516,-0.0553,-0.0538,-0.0553,-0.0497,-0.0511,-0.0494,-0.0347,-0.0347,-0.0346,-0.0984,-0.0985,-0.0929,-0.0951,-0.0978,-0.091,-0.066,-0.0379,-0.0269,-0.0323,-0.0444,-0.0464,-0.0445,-0.0477,-0.0394,-0.0422,-0.0396,0,0]},{"header":{"parameterUnit":"m.s-1","parameterCategory":2,"la1":30.2992,"la2":30.254,"lo1":-89.0895,"lo2":-89.0443,"dy":0.0025,"dx":0.0025,"nx":19,"ny":19,"refTime":"2026-04-21T09:00:00:Z","depth":"0","parameterNumber":3,"parameterNumberName":"V-component_of_CURRENTS"},"data":[0,0,0,-0.0279,-0.0278,-0.0259,-0.0259,-0.021,-0.021,0,0,0,0,0,0,0,0,0,0,0,-0.0284,-0.0284,-0.0279,-0.0278,-0.0259,-0.0258,-0.0211,-0.021,0,0,0,0,0,0,0,0,0,0,0,-0.0284,-0.0284,-0.0284,-0.0278,-0.0259,-0.0258,-0.0211,-0.023,0,0,0,0,0,0,0,0,0,0,-0.0251,-0.0263,-0.0284,-0.0284,-0.0278,-0.0259,-0.0258,-0.0231,-0.0229,-0.0215,0,-0.0215,0,-0.0214,-0.0207,-0.0207,0,0,0,-0.0272,-0.0265,-0.026,-0.0284,-0.0278,-0.0259,-0.0266,-0.023,-0.0227,-0.0212,-0.0214,-0.0213,-0.0213,-0.0207,-0.0206,-0.0178,-0.0178,0,0,-0.0273,-0.0278,-0.0262,-0.0258,-0.0277,-0.0267,-0.0265,-0.0228,-0.0226,-0.0214,-0.0212,-0.0213,-0.0206,-0.0206,-0.0178,-0.0178,0,0,0,-0.0281,-0.0279,-0.0275,-0.026,-0.026,-0.0266,-0.0265,-0.0228,-0.0227,-0.0211,-0.0212,-0.0206,-0.0205,-0.0177,-0.0178,-0.0194,0,0,0,-0.0281,-0.0284,-0.0276,-0.0278,-0.0261,-0.0247,-0.0265,-0.0229,-0.0225,-0.0212,-0.0206,-0.0205,-0.0177,-0.0178,-0.0194,-0.0186,0,0,0,-0.0284,-0.0284,-0.0283,-0.0278,-0.0273,-0.0248,-0.0244,-0.0229,-0.0226,-0.0207,-0.0205,-0.0177,-0.0178,-0.0193,-0.0186,-0.0138,0,0,0,-0.0287,-0.0307,-0.0283,-0.0302,-0.0273,-0.0273,-0.0245,-0.0238,-0.0226,-0.0206,-0.0177,-0.0178,-0.0193,-0.0185,-0.0139,-0.0017,-0.0005,0,0,-0.0319,-0.031,-0.0322,-0.0301,-0.031,-0.0275,-0.0271,-0.0241,-0.022,-0.0187,-0.0186,-0.0194,-0.0186,-0.0138,-0.0023,-0.001,0,0,0,-0.0337,-0.0344,-0.0343,-0.0339,-0.0325,-0.0294,-0.0268,-0.0247,-0.0215,-0.0214,-0.0191,-0.0185,-0.0154,-0.0083,-0.0073,0.0034,-0.0178,-0.0178,-0.0178,-0.038,-0.0371,-0.0383,-0.0366,-0.0353,-0.0308,-0.0278,-0.024,-0.0229,-0.0216,-0.0198,-0.0171,-0.0096,-0.0087,0.002,-0.0204,-0.0204,-0.0204,-0.0204,-0.0425,-0.0432,-0.0403,-0.0414,-0.0367,-0.0351,-0.028,-0.0257,-0.0194,-0.0205,-0.0175,-0.0103,-0.0076,0.0034,-0.0205,-0.0205,-0.0205,-0.0205,-0.0205,-0.0455,-0.0456,-0.0457,-0.045,-0.0418,-0.0368,-0.0289,-0.025,-0.0201,-0.0173,-0.0057,-0.0055,0.0045,-0.015,-0.015,-0.015,-0.0149,-0.0149,-0.0149,-0.0486,-0.0485,-0.0498,-0.0484,-0.0467,-0.0405,-0.0292,-0.0215,-0.0095,-0.0046,-0.0044,0.008,-0.0153,-0.0151,-0.0146,-0.0146,-0.0147,-0.0147,-0.0147,-0.0525,-0.0528,-0.0544,-0.0538,-0.048,-0.0318,-0.0232,0.0008,0.0053,0.0146,0.0255,0.0039,0.007,0.0064,0.0072,0.0135,0.0135,0.0135,0.0135,-0.0551,-0.0554,-0.057,-0.0553,-0.0478,-0.0285,0.009,0.0338,0.0457,0.0512,0.0428,0.0442,0.0426,0.0477,0.0461,0.0477,0.0641,0.0642,0.0642,-0.057,-0.0572,-0.0581,-0.0565,-0.0475,-0.0171,0.0332,0.0753,0.0776,0.0668,0.0553,0.0531,0.055,0.0516,0.0591,0.056,0.0583,0,0]}],[{"header":{"parameterUnit":"m.s-1","parameterCategory":2,"la1":30.2992,"la2":30.254,"lo1":-89.0895,"lo2":-89.0443,"dy":0.0025,"dx":0.0025,"nx":19,"ny":19,"refTime":"2026-04-21T09:00:00:Z","depth":"2","parameterNumber":2,"parameterNumberName":"U-component_of_CURRENTS"},"data":[0,0,0,-0.1024,-0.1024,-0.1018,-0.1018,-0.0993,-0.0993,0,0,0,0,0,0,0,0,0,0,0,-0.1023,-0.1023,-0.1024,-0.1024,-0.1018,-0.1018,-0.0993,-0.0993,0,0,0,0,0,0,0,0,0,0,0,-0.1023,-0.1023,-0.1023,-0.1024,-0.1018,-0.1018,-0.0993,-0.1001,0,0,0,0,0,0,0,0,0,0,-0.1008,-0.1011,-0.1023,-0.1023,-0.1024,-0.1018,-0.1018,-0.1001,-0.1,-0.0993,0,-0.0993,0,-0.0996,-0.0991,-0.0991,0,0,0,-0.1019,-0.1011,-0.1012,-0.1023,-0.1024,-0.1018,-0.1019,-0.1001,-0.1,-0.0991,-0.0993,-0.0992,-0.0995,-0.0991,-0.0991,-0.0983,-0.0983,0,0,-0.1019,-0.1018,-0.1013,-0.1011,-0.1024,-0.1019,-0.1019,-0.1,-0.0998,-0.0993,-0.0992,-0.0995,-0.0991,-0.0991,-0.0983,-0.0983,0,0,0,-0.1023,-0.1019,-0.102,-0.1012,-0.1014,-0.1019,-0.1019,-0.0999,-0.1,-0.0991,-0.0995,-0.0991,-0.0991,-0.0983,-0.0983,-0.1013,0,0,0,-0.1023,-0.1022,-0.102,-0.1019,-0.1015,-0.1009,-0.1018,-0.1001,-0.0999,-0.0995,-0.0991,-0.0991,-0.0983,-0.0983,-0.1012,-0.1011,0,0,0,-0.1023,-0.1021,-0.1022,-0.1019,-0.102,-0.1009,-0.1009,-0.1001,-0.1001,-0.0991,-0.099,-0.0982,-0.0983,-0.1011,-0.101,-0.0959,0,0,0,-0.102,-0.1042,-0.1022,-0.1047,-0.102,-0.1037,-0.1009,-0.1018,-0.1015,-0.0991,-0.0983,-0.0983,-0.1011,-0.1009,-0.0959,-0.0837,-0.0826,0,0,-0.1052,-0.1045,-0.1062,-0.1045,-0.1073,-0.1037,-0.1052,-0.1035,-0.1012,-0.0986,-0.0986,-0.1012,-0.101,-0.0959,-0.0849,-0.0838,0,0,0,-0.1076,-0.1084,-0.109,-0.1098,-0.1098,-0.1081,-0.1064,-0.1046,-0.1023,-0.101,-0.1008,-0.1005,-0.0971,-0.0899,-0.089,-0.0984,-0.0984,-0.0984,-0.0984,-0.1104,-0.111,-0.1129,-0.113,-0.1134,-0.1114,-0.1095,-0.1061,-0.1048,-0.1039,-0.1027,-0.1005,-0.0931,-0.0922,-0.1031,-0.1031,-0.1031,-0.1031,-0.1031,-0.1129,-0.1123,-0.1137,-0.1157,-0.1143,-0.1145,-0.111,-0.1093,-0.1039,-0.1044,-0.101,-0.0932,-0.0913,-0.1034,-0.1033,-0.1033,-0.1033,-0.1033,-0.1032,-0.1113,-0.1107,-0.1129,-0.1139,-0.1145,-0.114,-0.1104,-0.1087,-0.1052,-0.1032,-0.0902,-0.09,-0.0995,-0.1001,-0.1001,-0.1001,-0.1001,-0.1001,-0.1,-0.1064,-0.1088,-0.1084,-0.1108,-0.1109,-0.1107,-0.1083,-0.1038,-0.0946,-0.0905,-0.0903,-0.0993,-0.0994,-0.0992,-0.0997,-0.0998,-0.0998,-0.0998,-0.0999,-0.1003,-0.1018,-0.1007,-0.101,-0.1023,-0.0958,-0.0991,-0.0864,-0.0815,-0.0736,-0.0812,-0.0817,-0.078,-0.0785,-0.0777,-0.0726,-0.0726,-0.0726,-0.0726,-0.0942,-0.0956,-0.0917,-0.0909,-0.0915,-0.0884,-0.0699,-0.0604,-0.0588,-0.058,-0.0587,-0.0587,-0.0601,-0.0554,-0.0565,-0.0552,-0.0443,-0.0443,-0.0443,-0.0878,-0.088,-0.0825,-0.0843,-0.0859,-0.0767,-0.05,-0.0267,-0.0282,-0.0437,-0.0593,-0.0696,-0.0716,-0.0729,-0.0673,-0.0685,-0.0671,0,0]},{"header":{"parameterUnit":"m.s-1","parameterCategory":2,"la1":30.2992,"la2":30.254,"lo1":-89.0895,"lo2":-89.0443,"dy":0.0025,"dx":0.0025,"nx":19,"ny":19,"refTime":"2026-04-21T09:00:00:Z","depth":"2","parameterNumber":3,"parameterNumberName":"V-component_of_CURRENTS"},"data":[0,0,0,-0.0327,-0.0327,-0.0312,-0.0312,-0.0269,-0.0269,0,0,0,0,0,0,0,0,0,0,0,-0.0331,-0.0331,-0.0327,-0.0327,-0.0312,-0.0312,-0.0269,-0.0269,0,0,0,0,0,0,0,0,0,0,0,-0.0331,-0.0331,-0.0331,-0.0327,-0.0312,-0.0312,-0.0269,-0.0285,0,0,0,0,0,0,0,0,0,0,-0.0302,-0.0312,-0.0331,-0.0331,-0.0327,-0.0312,-0.0312,-0.0286,-0.0284,-0.0271,0,-0.0272,0,-0.0272,-0.0266,-0.0266,0,0,0,-0.0322,-0.0313,-0.031,-0.0331,-0.0327,-0.0312,-0.0317,-0.0285,-0.0283,-0.0269,-0.0271,-0.027,-0.0271,-0.0266,-0.0266,-0.0232,-0.0232,0,0,-0.0323,-0.0326,-0.0311,-0.0309,-0.0326,-0.0318,-0.0317,-0.0284,-0.0282,-0.0271,-0.0269,-0.0271,-0.0265,-0.0265,-0.0232,-0.0232,0,0,0,-0.0329,-0.0326,-0.0324,-0.031,-0.0311,-0.0318,-0.0317,-0.0284,-0.0283,-0.0269,-0.027,-0.0265,-0.0265,-0.0232,-0.0232,-0.0248,0,0,0,-0.0329,-0.033,-0.0324,-0.0326,-0.0312,-0.0301,-0.0317,-0.0285,-0.0282,-0.027,-0.0265,-0.0264,-0.0232,-0.0232,-0.0247,-0.0242,0,0,0,-0.0331,-0.0331,-0.033,-0.0326,-0.0322,-0.0301,-0.0299,-0.0285,-0.0283,-0.0266,-0.0264,-0.0232,-0.0232,-0.0247,-0.0242,-0.0199,0,0,0,-0.0333,-0.035,-0.033,-0.0346,-0.0323,-0.0321,-0.0299,-0.0293,-0.0281,-0.0265,-0.0232,-0.0232,-0.0247,-0.0242,-0.0199,-0.0095,-0.0084,0,0,-0.036,-0.0353,-0.0363,-0.0346,-0.0354,-0.0323,-0.0318,-0.0292,-0.0273,-0.024,-0.024,-0.0247,-0.0242,-0.0199,-0.0089,-0.0078,0,0,0,-0.0376,-0.0383,-0.0382,-0.0379,-0.0366,-0.0338,-0.0315,-0.0294,-0.0264,-0.0266,-0.0241,-0.0236,-0.0209,-0.0147,-0.0138,-0.0232,-0.0232,-0.0232,-0.0232,-0.0414,-0.0406,-0.0418,-0.0403,-0.0389,-0.0348,-0.032,-0.0283,-0.0273,-0.0259,-0.0245,-0.0217,-0.0152,-0.0144,-0.0246,-0.0246,-0.0246,-0.0246,-0.0246,-0.0456,-0.0465,-0.0437,-0.0448,-0.0404,-0.0388,-0.032,-0.0298,-0.0238,-0.0247,-0.0219,-0.0162,-0.0135,-0.0247,-0.0247,-0.0247,-0.0247,-0.0247,-0.0247,-0.0487,-0.049,-0.049,-0.0486,-0.0454,-0.0405,-0.0332,-0.0292,-0.0245,-0.0219,-0.0117,-0.0116,-0.0207,-0.0198,-0.0197,-0.0197,-0.0197,-0.0197,-0.0197,-0.0521,-0.0519,-0.0534,-0.0521,-0.0505,-0.0448,-0.0338,-0.0266,-0.0154,-0.0108,-0.0107,-0.0199,-0.0201,-0.0202,-0.0194,-0.0194,-0.0195,-0.0195,-0.0195,-0.0564,-0.0565,-0.0584,-0.058,-0.053,-0.0418,-0.032,-0.01,-0.0034,0.0049,-0.0028,-0.0033,-0.0006,-0.0012,-0.0008,0.005,0.005,0.005,0.005,-0.0592,-0.0595,-0.0616,-0.0606,-0.0545,-0.0407,-0.0181,-0.0049,0.0056,0.0045,0.0044,0.0029,0.0022,0.0048,0.0041,0.0044,0.0116,0.0116,0.0115,-0.0615,-0.0617,-0.0632,-0.0623,-0.0553,-0.0349,-0.012,-0.001,0.0041,0.0107,-0.0057,0.0076,0.0055,0.0042,0.0082,0.007,0.0076,0,0]}],[{"header":{"parameterUnit":"m.s-1","parameterCategory":2,"la1":30.2992,"la2":30.254,"lo1":-89.0895,"lo2":-89.0443,"dy":0.0025,"dx":0.0025,"nx":19,"ny":19,"refTime":"2026-04-21T09:00:00:Z","depth":"4","parameterNumber":2,"parameterNumberName":"U-component_of_CURRENTS"},"data":[0,0,0,-0.073,-0.073,-0.0762,-0.0762,-0.077,-0.0769,0,0,0,0,0,0,0,0,0,0,0,-0.072,-0.072,-0.073,-0.073,-0.0762,-0.0762,-0.077,-0.0769,0,0,0,0,0,0,0,0,0,0,0,-0.072,-0.072,-0.0721,-0.0731,-0.0762,-0.0762,-0.077,-0.0754,0,0,0,0,0,0,0,0,0,0,-0.0727,-0.0724,-0.072,-0.0721,-0.0731,-0.0762,-0.0762,-0.0753,-0.0755,-0.0746,0,-0.0753,0,-0.076,-0.0769,-0.0769,0,0,0,-0.073,-0.0724,-0.073,-0.0721,-0.0731,-0.0762,-0.0748,-0.0755,-0.0756,-0.0747,-0.0754,-0.0754,-0.076,-0.0769,-0.0769,-0.0764,-0.0764,0,0,-0.0729,-0.0726,-0.0729,-0.0731,-0.0742,-0.0747,-0.0749,-0.0756,-0.0759,-0.0754,-0.0754,-0.0761,-0.0769,-0.0769,-0.0764,-0.0764,0,0,0,-0.0724,-0.0725,-0.0732,-0.0731,-0.0739,-0.0748,-0.075,-0.0758,-0.0761,-0.0755,-0.0761,-0.0769,-0.0769,-0.0764,-0.0764,-0.0778,0,0,0,-0.0723,-0.0722,-0.0732,-0.073,-0.0739,-0.0754,-0.0752,-0.076,-0.0761,-0.0761,-0.0769,-0.0769,-0.0764,-0.0764,-0.0778,-0.0784,0,0,0,-0.0718,-0.0721,-0.0726,-0.073,-0.0744,-0.0754,-0.0757,-0.0761,-0.0765,-0.0769,-0.0769,-0.0764,-0.0764,-0.0778,-0.0784,-0.0741,0,0,0,-0.0713,-0.0721,-0.0726,-0.0738,-0.0743,-0.0761,-0.0757,-0.0776,-0.0783,-0.0769,-0.0764,-0.0764,-0.0777,-0.0783,-0.0742,-0.0635,0,0,0,-0.0719,-0.0722,-0.0729,-0.0734,-0.0749,-0.0756,-0.0768,-0.0779,-0.0775,-0.0759,-0.076,-0.0778,-0.0784,-0.0742,-0.0633,0,0,0,0,-0.0727,-0.073,-0.0737,-0.0748,-0.0761,-0.0772,-0.0782,-0.0778,-0.0778,-0.0778,-0.0773,-0.0776,-0.0748,-0.0687,-0.0764,-0.0764,-0.0764,-0.0764,-0.0764,-0.0722,-0.0732,-0.0745,-0.0757,-0.0771,-0.0783,-0.0787,-0.0782,-0.0781,-0.0782,-0.0783,-0.0757,-0.0695,-0.0778,-0.0778,-0.0778,-0.0779,-0.0779,-0.0779,-0.0722,-0.0721,-0.0749,-0.0769,-0.0784,-0.08,-0.0796,-0.0796,-0.077,-0.0784,-0.0756,-0.0703,-0.078,-0.078,-0.0779,-0.0779,-0.0779,-0.0779,-0.0779,-0.0702,-0.0702,-0.0734,-0.0763,-0.0795,-0.0816,-0.0798,-0.0805,-0.0784,-0.0769,-0.067,-0.075,-0.0751,-0.0746,-0.0746,-0.0746,-0.0746,-0.0746,-0.0746,-0.066,-0.0689,-0.0704,-0.075,-0.0773,-0.0793,-0.0797,-0.0759,-0.0745,-0.0667,-0.0765,-0.0746,-0.0747,-0.0748,-0.0743,-0.0744,-0.0744,-0.0744,-0.0744,-0.0598,-0.0625,-0.0636,-0.066,-0.0693,-0.0691,-0.0739,-0.0648,-0.0584,-0.0516,-0.0592,-0.06,-0.0575,-0.058,-0.0575,-0.0519,-0.0517,-0.0516,0,-0.0544,-0.0561,-0.0552,-0.0557,-0.0543,-0.0605,-0.0511,-0.0485,-0.0462,-0.0448,-0.0552,-0.064,-0.0645,-0.062,-0.0622,-0.0617,0,0,0,-0.0486,-0.0497,-0.0458,-0.0476,-0.0458,-0.0429,-0.0467,-0.0414,-0.0511,-0.0411,-0.048,-0.0489,-0.0639,-0.0736,-0.0717,-0.0718,-0.0719,0,0]},{"header":{"parameterUnit":"m.s-1","parameterCategory":2,"la1":30.2992,"la2":30.254,"lo1":-89.0895,"lo2":-89.0443,"dy":0.0025,"dx":0.0025,"nx":19,"ny":19,"refTime":"2026-04-21T09:00:00:Z","depth":"4","parameterNumber":3,"parameterNumberName":"V-component_of_CURRENTS"},"data":[0,0,0,-0.0265,-0.0266,-0.0281,-0.0281,-0.0261,-0.026,0,0,0,0,0,0,0,0,0,0,0,-0.0259,-0.0259,-0.0265,-0.0266,-0.0281,-0.0281,-0.0261,-0.026,0,0,0,0,0,0,0,0,0,0,0,-0.0259,-0.0259,-0.0259,-0.0266,-0.0281,-0.0281,-0.0261,-0.0258,0,0,0,0,0,0,0,0,0,0,-0.0248,-0.025,-0.0259,-0.0259,-0.0266,-0.0281,-0.0281,-0.0259,-0.0258,-0.0244,0,-0.0249,0,-0.0255,-0.0258,-0.0258,0,0,0,-0.0262,-0.025,-0.0254,-0.0259,-0.0266,-0.0281,-0.0273,-0.0259,-0.0259,-0.0243,-0.0249,-0.0249,-0.0255,-0.0258,-0.0258,-0.0209,-0.0208,0,0,-0.0261,-0.026,-0.0255,-0.0254,-0.0273,-0.0272,-0.0273,-0.0259,-0.0259,-0.0249,-0.0248,-0.0255,-0.0258,-0.0258,-0.0209,-0.0209,0,0,0,-0.0261,-0.0259,-0.0264,-0.0255,-0.0261,-0.0273,-0.0274,-0.026,-0.0262,-0.0248,-0.0254,-0.0258,-0.0258,-0.0209,-0.0209,-0.0217,0,0,0,-0.0261,-0.0259,-0.0264,-0.0263,-0.0262,-0.0267,-0.0275,-0.0263,-0.0261,-0.0255,-0.0258,-0.0257,-0.021,-0.0209,-0.0217,-0.0224,0,0,0,-0.0257,-0.0259,-0.0262,-0.0263,-0.0271,-0.0267,-0.0268,-0.0263,-0.0265,-0.0258,-0.0257,-0.021,-0.0209,-0.0218,-0.0225,-0.02,0,0,0,-0.0253,-0.0258,-0.0262,-0.0266,-0.0271,-0.0267,-0.0269,-0.0267,-0.0261,-0.0258,-0.021,-0.0209,-0.0218,-0.0225,-0.02,-0.0228,0,0,0,-0.0256,-0.0258,-0.026,-0.0264,-0.0265,-0.0264,-0.0252,-0.025,-0.0241,-0.0212,-0.0211,-0.0217,-0.0225,-0.02,-0.0182,0,0,0,0,-0.0258,-0.0264,-0.0262,-0.0266,-0.026,-0.0254,-0.0248,-0.0236,-0.0217,-0.0236,-0.0199,-0.0203,-0.0187,-0.0204,-0.0205,-0.0205,-0.0205,-0.0205,-0.0205,-0.0266,-0.0265,-0.0272,-0.027,-0.0261,-0.0244,-0.0231,-0.021,-0.0204,-0.0191,-0.0196,-0.0165,-0.0182,-0.0178,-0.0178,-0.0178,-0.0178,-0.0178,-0.0178,-0.0288,-0.0302,-0.0289,-0.0301,-0.0281,-0.027,-0.0221,-0.021,-0.017,-0.0176,-0.016,-0.0195,-0.0178,-0.0178,-0.0178,-0.0178,-0.0178,-0.0178,-0.0178,-0.0315,-0.0322,-0.0331,-0.0342,-0.033,-0.0298,-0.0259,-0.022,-0.0182,-0.0166,-0.0167,-0.0159,-0.0173,-0.0154,-0.0154,-0.0154,-0.0154,-0.0154,-0.0154,-0.0348,-0.0353,-0.0381,-0.0384,-0.0387,-0.0359,-0.0283,-0.0234,-0.0182,-0.0173,-0.0165,-0.0156,-0.0157,-0.0171,-0.0152,-0.0153,-0.0153,-0.0153,-0.0153,-0.0387,-0.0396,-0.0432,-0.0447,-0.0443,-0.0414,-0.0334,-0.0227,-0.0179,-0.0143,-0.0166,-0.0165,-0.0162,-0.0162,-0.0176,-0.0159,-0.0159,-0.0159,0,-0.0415,-0.0421,-0.0474,-0.0498,-0.0494,-0.0443,-0.0363,-0.0281,-0.0213,-0.0241,-0.0195,-0.0227,-0.0225,-0.0228,-0.0228,-0.0249,0,0,0,-0.044,-0.0451,-0.0492,-0.052,-0.0523,-0.0422,-0.0341,-0.0312,-0.0235,-0.0158,-0.0166,-0.0164,-0.0138,-0.0149,-0.0142,-0.0143,-0.0164,0,0]}]]